FW6661 Weather Reports


Display with metric or nautical units.
time (UTC)temp
F
wind
direction
speed
MPH
gust
MPH
rain 1hr
in
rain 24hr
in
rain mn
in
humidity
%
barometer
mb
20210923175536 68 158 0.0 0.0 0.00 0.03 0.00 56 989.7
20210923174536 69 225 1.0 1.0 0.00 0.03 0.00 52 989.6
20210923173528 69 225 1.0 1.0 0.00 0.03 0.00 56 989.7
20210923172535 68 158 0.0 1.0 0.00 0.03 0.00 54 989.7
20210923171537 68 277 1.0 1.0 0.00 0.03 0.00 54 989.7
20210923170530 68 158 0.0 0.0 0.00 0.03 0.00 56 989.7
20210923165536 69 225 1.0 1.0 0.00 0.03 0.00 56 989.6
20210923164537 69 210 1.0 1.0 0.00 0.03 0.00 53 989.5
20210923163532 69 225 1.0 2.0 0.00 0.03 0.00 54 989.4
20210923162538 70 287 1.0 1.0 0.00 0.03 0.00 60 989.4
20210923161537 70 225 2.0 2.0 0.00 0.03 0.00 54 989.4
20210923160547 69 158 1.0 1.0 0.00 0.03 0.00 57 989.4
20210923155537 69 225 1.0 1.0 0.00 0.03 0.00 56 989.4
20210923154534 69 221 1.0 1.0 0.00 0.03 0.00 53 989.3
20210923153530 69 204 1.0 1.0 0.00 0.03 0.00 58 989.2
20210923152536 69 248 0.0 1.0 0.00 0.03 0.00 58 989.2
20210923151534 68 202 0.0 0.0 0.00 0.03 0.00 60 989.2
20210923150536 68 225 0.0 0.0 0.00 0.03 0.00 66 989.1
20210923145536 67 45 1.0 1.0 0.00 0.03 0.00 64 989.0
20210923144539 66 315 1.0 1.0 0.00 0.03 0.00 75 989.0
20210923143538 65 315 1.0 1.0 0.00 0.03 0.00 77 988.9
20210923142535 63 0 0.0 0.0 0.00 0.03 0.00 83 988.8
20210923141535 62 27 0.0 1.0 0.00 0.03 0.00 83 988.7
20210923140528 62 0 1.0 1.0 0.00 0.03 0.00 86 988.6
20210923135533 61 315 1.0 1.0 0.00 0.03 0.00 94 988.6
20210923134534 61 45 0.0 0.0 0.00 0.03 0.00 94 988.5
20210923133525 60 135 1.0 1.0 0.00 0.03 0.00 85 988.3
20210923132532 59 318 1.0 1.0 0.00 0.03 0.00 99 988.4
20210923131534 59 0 0.0 1.0 0.00 0.03 0.00 100 988.2
20210923130528 59 45 0.0 0.0 0.00 0.03 0.00 100 988.0
20210923125535 58 311 1.0 1.0 0.00 0.03 0.00 100 987.8
20210923124536 58 11 1.0 1.0 0.00 0.03 0.00 100 987.6
20210923123531 57 309 0.0 0.0 0.00 0.03 0.00 100 987.5
20210923122536 57 158 0.0 0.0 0.00 0.03 0.00 100 987.4
20210923121535 57 0 0.0 0.0 0.00 0.03 0.00 100 987.4
20210923120531 56 315 1.0 1.0 0.00 0.03 0.00 100 987.4
20210923115535 56 0 0.0 0.0 0.00 0.03 0.00 100 987.5
20210923114535 56 0 0.0 0.0 0.00 0.03 0.00 100 987.6
20210923113531 56 0 0.0 0.0 0.00 0.03 0.00 100 987.6
20210923112535 56 0 0.0 0.0 0.00 0.03 0.00 100 987.5
20210923111537 56 225 0.0 0.0 0.00 0.03 0.00 100 987.4
20210923110540 57 0 0.0 0.0 0.00 0.03 0.00 100 987.3
20210923105538 57 23 0.0 0.0 0.00 0.03 0.00 100 987.2
20210923104539 57 315 0.0 0.0 0.00 0.03 0.00 100 987.0
20210923103542 58 0 0.0 0.0 0.00 0.03 0.00 100 986.8
20210923102541 58 0 0.0 0.0 0.00 0.03 0.00 100 986.7
20210923101542 58 0 0.0 0.0 0.00 0.03 0.00 100 986.6
20210923100542 58 5 0.0 0.0 0.00 0.03 0.00 100 986.5
20210923095538 59 0 0.0 0.0 0.00 0.03 0.00 100 986.4
20210923094539 59 0 0.0 0.0 0.00 0.03 0.00 100 986.3
20210923093539 60 0 0.0 0.0 0.00 0.03 0.00 100 986.2
20210923092539 60 0 0.0 0.0 0.00 0.03 0.00 100 986.1
20210923091537 60 0 0.0 0.0 0.00 0.03 0.00 100 986.1
20210923090542 60 0 0.0 0.0 0.00 0.03 0.00 100 985.9
20210923085540 60 0 0.0 0.0 0.00 0.03 0.00 100 985.8
20210923084541 60 225 0.0 0.0 0.00 0.03 0.00 100 985.9
20210923083541 60 0 0.0 0.0 0.00 0.03 0.00 100 985.8
20210923082540 60 0 0.0 0.0 0.00 0.03 0.00 100 985.9
20210923081540 60 0 0.0 0.0 0.00 0.03 0.00 100 985.9
20210923080540 60 0 0.0 0.0 0.00 0.03 0.00 100 985.7
20210923075535 60 0 0.0 0.0 0.00 0.03 0.00 100 985.8
20210923074532 60 0 0.0 0.0 0.00 0.03 0.00 100 985.7
20210923073530 60 0 0.0 0.0 0.00 0.03 0.00 100 985.8
20210923072553 60 0 0.0 0.0 0.00 0.03 0.00 100 985.8
20210923071545 60 0 0.0 0.0 0.00 0.03 0.00 100 985.8
20210923070539 60 0 0.0 0.0 0.00 0.03 0.00 100 985.9
20210923065552 60 45 0.0 0.0 0.00 0.03 0.00 100 986.0
20210923064635 60 45 0.0 0.0 0.02 0.03 0.00 100 986.0
20210923063519 60 0 0.0 0.0 0.02 0.03 0.00 100 986.3
20210923062523 60 0 0.0 0.0 0.02 0.03 0.00 100 986.3
20210923061522 61 0 0.0 0.0 0.02 0.03 0.00 100 986.5
20210923060516 60 0 0.0 0.0 0.02 0.03 0.00 100 986.6
20210923055523 61 0 0.0 0.0 0.03 0.03 0.00 100 986.6
20210923054513 61 0 0.0 0.0 0.01 0.01 0.00 100 987.2
20210923053517 61 0 0.0 0.0 0.01 0.01 0.00 100 987.2
20210923052518 61 0 0.0 0.0 0.01 0.01 0.00 100 987.2
20210923051524 61 0 0.0 0.0 0.01 0.01 0.00 100 987.2
20210923050522 61 225 1.0 1.0 0.01 0.01 0.00 100 987.2
20210923045528 61 158 0.0 0.0 0.00 0.00 0.00 100 986.9
20210923044532 61 0 0.0 0.0 0.00 0.00 0.00 100 987.0
20210923043527 62 45 0.0 0.0 0.00 0.00 0.00 100 987.0
20210923042536 61 0 0.0 0.0 0.00 0.00 0.00 100 987.2
20210923041537 61 0 0.0 0.0 0.00 0.00 0.00 100 987.2
20210923040539 62 225 0.0 1.0 0.01 0.00 0.00 100 987.3
20210923035536 62 45 0.0 0.0 0.03 1.17 0.00 100 987.1
20210923034539 62 0 0.0 0.0 0.06 1.17 0.00 100 987.0
20210923033538 62 0 0.0 0.0 0.08 1.17 0.00 100 987.1
20210923032535 62 0 0.0 0.0 0.08 1.17 0.00 100 987.2
20210923031535 62 45 0.0 0.0 0.08 1.17 0.00 100 987.2
20210923030530 62 304 1.0 1.0 0.07 1.16 0.00 100 987.5
20210923025540 62 0 0.0 1.0 0.04 1.14 0.00 100 987.7
20210923024534 63 45 0.0 0.0 0.02 1.11 0.00 100 987.6
20210923023530 63 276 1.0 1.0 0.00 1.09 0.00 100 987.4
20210923022539 63 0 0.0 0.0 0.07 1.09 0.00 100 987.1
20210923021537 63 0 0.0 0.0 0.24 1.09 0.00 100 987.1
20210923020554 63 0 0.0 1.0 0.36 1.09 0.00 100 987.3
20210923015537 63 0 0.0 0.0 0.43 1.09 0.00 100 987.2
20210923014537 64 0 0.0 0.0 0.43 1.09 0.00 100 987.3
20210923013533 64 293 0.0 1.0 0.44 1.09 0.00 100 986.9
20210923011540 66 45 1.0 1.0 0.21 0.85 0.00 100 986.8
20210923010535 68 315 2.0 2.0 0.09 0.73 0.00 97 986.4
20210923005543 71 45 0.0 0.0 0.02 0.66 0.00 100 985.8
20210923004543 71 0 0.0 0.0 0.02 0.66 0.00 100 985.8
20210923003545 71 60 1.0 1.0 0.01 0.65 0.00 100 985.7
20210923002541 71 45 1.0 1.0 0.01 0.65 0.00 100 985.8
20210923001539 71 31 0.0 0.0 0.00 0.64 0.00 100 986.0
20210923000543 72 45 0.0 1.0 0.00 0.64 0.00 100 985.8
20210922235538 72 253 1.0 1.0 0.00 0.64 0.00 100 985.9
20210922234541 72 23 2.0 3.0 0.00 0.64 0.00 100 985.9
20210922233540 72 319 1.0 1.0 0.00 0.64 0.00 100 985.9
20210922232537 72 90 0.0 1.0 0.00 0.64 0.00 100 985.9
20210922231537 72 45 0.0 0.0 0.00 0.64 0.00 100 985.9
20210922230537 72 45 0.0 0.0 0.00 0.64 0.00 100 986.1
20210922225535 71 225 0.0 0.0 0.00 0.64 0.00 100 986.1
20210922224534 71 45 1.0 1.0 0.00 0.64 0.00 100 986.2
20210922223534 71 286 1.0 1.0 0.00 0.64 0.00 100 986.1
20210922222531 71 0 0.0 0.0 0.00 0.64 0.00 100 986.0
20210922221531 71 0 0.0 0.0 0.02 0.64 0.00 100 986.0
20210922220534 71 293 1.0 1.0 0.11 0.64 0.00 100 986.1
20210922215535 71 56 2.0 2.0 0.13 0.64 0.00 100 986.0
20210922214537 71 0 0.0 1.0 0.13 0.64 0.00 100 986.0
20210922213541 71 45 1.0 1.0 0.13 0.64 0.00 100 986.0
20210922212540 71 0 0.0 0.0 0.13 0.64 0.00 100 986.0
20210922211542 71 225 1.0 1.0 0.11 0.62 0.00 100 986.2
20210922210542 72 78 1.0 2.0 0.09 0.53 0.00 100 986.3
20210922205540 73 106 1.0 2.0 0.09 0.51 0.00 99 986.5
20210922204539 74 113 1.0 1.0 0.09 0.51 0.00 98 986.3
20210922203539 74 135 0.0 1.0 0.09 0.51 0.00 100 986.6
20210922202534 73 175 2.0 2.0 0.09 0.51 0.00 100 986.7
20210922201534 73 45 2.0 2.0 0.09 0.51 0.00 100 986.8
20210922200524 73 315 1.0 2.0 0.02 0.44 0.00 100 986.7
20210922195529 73 77 2.0 3.0 0.00 0.42 0.00 99 986.9
20210922194528 73 261 1.0 2.0 0.00 0.42 0.00 100 987.0
20210922193523 73 293 1.0 2.0 0.01 0.42 0.00 100 987.2
20210922192530 73 225 1.0 1.0 0.02 0.42 0.00 100 987.2
20210922191529 73 23 1.0 2.0 0.02 0.42 0.00 100 987.4
20210922190522 73 293 0.0 0.0 0.02 0.42 0.00 100 987.4
20210922185528 73 225 0.0 0.0 0.03 0.42 0.00 100 987.7
20210922184528 72 0 0.0 0.0 0.03 0.42 0.00 100 987.7
20210922183522 72 225 1.0 2.0 0.03 0.41 0.00 100 988.1
20210922182529 72 225 0.0 0.0 0.03 0.40 0.00 100 988.3
20210922181531 72 225 1.0 1.0 0.03 0.40 0.00 100 988.5
20210922180531 72 23 2.0 3.0 0.03 0.40 0.00 100 988.7